Location: Borea
(45.6167°N, 23.0167°E)
Time: 00:46:55
(UTC+00:00)

OPS 8068 - Pass Details

Date: 27 February 2024
Orbit: 631 x 963 km, 98.3° (Epoch: 13 April)

Event Time Altitude Azimuth Distance (km) Brightness Sun altitude
Rises 04:14:37 0° 204° (SSW) 2,918 ? -10.7°
Reaches altitude 10° 04:17:19 10° 223° (SW) 2,034 ? -10.2°
Maximum altitude 04:20:29 19° 269° (W) 1,556 ? -9.6°
Drops below altitude 10° 04:23:45 10° 315° (NW) 2,127 ? -9.1°
Sets 04:26:41 0° 333° (NNW) 3,102 ? -8.6°
